Home   Weather   Macquarie Island   Past weeks

Flag for Australia Past Weather in Macquarie Island, Tasmania, Australia — Yesterday and Last 2 Weeks

Now
46 °F

Cool.


Feels Like: 38 °F
Forecast: 44 / 49 °F
Wind: 22 mph from North

Location: Macquarie Island

Current Time: Mar 2, 2017 at 7:10:29 am

Latest Report: Mar 2, 2017 at 6:00 am


Visibility: N/A

Pressure: 29.92 "Hg

Humidity: 91%

Dew Point: 43 °F

Location of Macquarie IslandLocation

Past Weather in Macquarie Island — Graph

°F

Macquarie Island Temperature Yesterday

Maximum temperature yesterday: 50 °F (at 12:00 pm)
Minimum temperature yesterday: 44 °F (at 9:00 pm)
Average temperature yesterday: 47 °F

High & Low Weather Summary for the Past Weeks

 TemperatureHumidityPressure
High52 °F (Feb 24, 2:00 pm)96% (Feb 16, 11:00 am)30.20 "Hg (Feb 16, 11:00 am)
Low42 °F (Feb 25, 5:00 pm)69% (Feb 15, 2:00 pm)29.15 "Hg (Feb 22, 5:00 am)
Average47 °F90%29.69 "Hg
* Reported Feb 15 6:00 am — Mar 2 6:00 am, Macquarie Island, Weather by CustomWeather, © 2017

Note: Actual official high and low records may vary slightly from our data, if they occured in-between our weather recording intervals... More about our weather records

Advertising

Macquarie Island Weather History for the Previous 24 Hours

Scroll right to see more
 ConditionsComfort  
Time TempWeatherWind HumidityBarometerVisibility
6:00 am
Thu, Mar 2
46 °FCool.22 mph91%29.92 "HgN/A
5:00 am46 °FCool.18 mph92%29.94 "HgN/A
3:00 am45 °FQuite cool.16 mph89%29.99 "HgN/A
2:00 am45 °FCool.14 mph87%30.00 "HgN/A
12:00 am45 °FPassing clouds.8 mph89%30.03 "Hg19 mi
11:00 pm
Wed, Mar 1
45 °FCool.10 mph85%30.03 "HgN/A
9:00 pm44 °FPassing clouds.14 mph86%30.05 "Hg19 mi
8:00 pm44 °FQuite cool.16 mph81%30.03 "HgN/A
6:00 pm47 °FScattered clouds.20 mph76%30.00 "Hg19 mi
5:00 pm46 °FCool.23 mph77%29.99 "HgN/A
3:00 pm49 °FOvercast.21 mph79%29.95 "Hg12 mi
2:00 pm50 °FCool.21 mph80%29.92 "HgN/A
12:00 pm50 °FSprinkles. Low clouds.17 mph89%29.85 "Hg12 mi
11:00 am48 °FCool.21 mph89%29.85 "HgN/A
9:00 am48 °FOvercast.24 mph83%29.84 "Hg12 mi
8:00 am47 °FCool.25 mph84%29.83 "HgN/A
Weather by CustomWeather, © 2017

See weather overviewHow to use our weather pages